Printer-friendly version

IAU Minor Planet Center

Minor Planet Center

MPEC 2002-C68 : 2002 CC19

The following Minor Planet Electronic Circular may be linked-to from your own Web pages, but must not otherwise be redistributed electronically.


Read MPEC 2002-C67 Read MPEC 2002-C69


M.P.E.C. 2002-C68                                Issued 2002 Feb. 11, 20:25 UT

     The Minor Planet Electronic Circulars contain information on unusual
         minor planets and routine data on comets.  They are published
   on behalf of Commission 20 of the International Astronomical Union by the
          Minor Planet Center, Smithsonian Astrophysical Observatory,
                          Cambridge, MA 02138, U.S.A.

             Prepared using the Tamkin Foundation Computer Network

                              MPC@CFA.HARVARD.EDU
          URL http://cfa-www.harvard.edu/iau/mpc.html  ISSN 1523-6714

                                   2002 CC19

                           Revision to MPEC 2002-C67

Observations:
     K02C19C* C2002 02 10.17801 04 45 56.97 -13 42 42.7          17.8 R      699
     K02C19C  C2002 02 10.18738 04 45 56.87 -13 41 33.7                      699
     K02C19C  C2002 02 10.19675 04 45 56.82 -13 40 24.5                      699
     K02C19C  C2002 02 10.20613 04 45 56.74 -13 39 15.3                      699
     K02C19C  C2002 02 11.16774 04 45 57.76 -11 40 55.7          17.6 R      649
     K02C19C  C2002 02 11.17097 04 45 57.77 -11 40 31.9          17.9 R      649
     K02C19C  C2002 02 11.17573 04 45 57.76 -11 39 56.6          17.7 R      649
     K02C19C 1C2002 02 11.52946 04 45 58.75 -10 55 57.5                      413
     K02C19C 1C2002 02 11.53059 04 45 58.74 -10 55 49.3                      413

Observer details:
413 Siding Spring.  Observer R. H. McNaught.  1.0-m f/8 reflector + CCD.
649 Powell Observatory, Louisburg.  Observers K. Smalley, R. Fredrick,
    R. Trentman, V. Morgan.  0.75-m Newtonian + CCD.
699 Lowell Observatory-LONEOS.  Observer B. W. Koehn.  0.59-m LONEOS Schmidt
    + CCD.

Orbital elements:
2002 CC19
Epoch 2002 Jan. 26.0 TT = JDT 2452300.5                 MPC
M 308.04985              (2000.0)            P               Q
n   0.72475829     Peri.   31.36057     -0.84689534     -0.02362252
a   1.2274597      Node   135.30640     +0.17220463     -0.95736156
e   0.0811622      Incl.   49.05415     +0.50310422     +0.28792501
P   1.36           H   17.6           G   0.15
From 9 observations 2002 Feb. 10-11.

Ephemeris:
2002 CC19                a,e,i = 1.23, 0.08, 49                  q = 1.1278
Date    TT    R. A. (2000) Decl.     Delta      r     Elong.  Phase     V
2002 02 05    04 46.86   -24 05.6    0.424    1.161   103.5    55.7    18.1
2002 02 15    04 46.58   -03 50.2    0.421    1.152   102.1    57.0    18.1
2002 02 25    04 51.81   +15 02.1    0.463    1.144    97.2    59.2    18.3
2002 03 07    05 01.60   +29 50.5    0.537    1.137    91.1    60.7    18.7
2002 03 17    05 15.56   +40 41.7    0.630    1.132    85.2    61.1    19.0
2002 03 27    05 33.71   +48 39.7    0.726    1.129    80.1    60.5    19.3
2002 04 06    05 56.28   +54 39.3    0.820    1.128    75.8    59.3    19.6
2002 04 16    06 23.97   +59 15.2    0.905    1.128    72.3    57.9    19.7
2002 04 26    06 57.63   +62 47.2    0.977    1.131    69.5    56.5    19.9
2002 05 06    07 38.02   +65 23.1    1.034    1.135    67.5    55.2    20.0
2002 05 16    08 25.51   +67 02.7    1.075    1.141    66.2    54.2    20.0
2002 05 26    09 19.00   +67 40.6    1.100    1.149    65.7    53.5    20.1
2002 06 05    10 15.51   +67 08.9    1.109    1.158    65.9    53.1    20.1
2002 06 15    11 11.14   +65 21.7    1.104    1.168    66.7    53.0    20.1
2002 06 25    12 02.57   +62 17.0    1.087    1.179    68.1    53.1    20.1
2002 07 05    12 48.28   +57 55.1    1.062    1.191    69.9    53.3    20.1
2002 07 15    13 28.41   +52 17.1    1.033    1.203    71.9    53.4    20.0
2002 07 25    14 03.89   +45 26.2    1.006    1.216    73.9    53.4    20.0
2002 08 04    14 35.78   +37 29.6    0.986    1.228    75.7    53.2    20.0
2002 08 14    15 05.14   +28 42.0    0.980    1.241    77.0    52.7    20.0
2002 08 24    15 32.80   +19 27.9    0.992    1.253    77.4    52.0    20.0
2002 09 03    15 59.39   +10 16.8    1.024    1.264    76.9    51.0    20.0
2002 09 13    16 25.49   +01 36.8    1.076    1.275    75.5    49.8    20.1
2002 09 23    16 51.49   -06 11.9    1.145    1.286    73.2    48.3    20.3
2002 10 03    17 17.70   -12 59.7    1.226    1.295    70.3    46.7    20.4
2002 10 13    17 44.40   -18 45.2    1.316    1.303    66.9    44.8    20.5
2002 10 23    18 11.75   -23 31.8    1.409    1.310    63.3    42.7    20.6
2002 11 02    18 39.88   -27 24.9    1.502    1.316    59.6    40.6    20.7
2002 11 12    19 08.90   -30 29.9    1.591    1.321    55.9    38.4    20.7
2002 11 22    19 38.82   -32 51.9    1.672    1.324    52.4    36.2    20.8

Timothy B. Spahr             (C) Copyright 2002 MPC           M.P.E.C. 2002-C68

Read MPEC 2002-C67 Read MPEC 2002-C69


Our Web policy. Index to the CBAT/MPC/ICQ pages.


Valid HTML 4.01!